[[{"header":{"parameterUnit":"m.s-1","parameterCategory":1,"la1":30.2991,"la2":30.254,"lo1":-89.0895,"lo2":-89.0444,"dy":0.0017,"dx":0.0017,"nx":28,"ny":28,"refTime":"2024-07-01T21:00:00:Z","depth":0,"parameterNumber":2,"parameterNumberName":"U-component_of_WINDS"},"data":[0,0,0,0,0,0,0,0,0,0,0,0,0,0,0,0,0,0,0,0,0,0,0,0,0,0,0,0,0,0,0,0,0,0,0,0,0,0,0,0,0,0,0,0,0,0,0,0,0,0,0,0,0,0,0,0,0,0,2.4491,2.4492,0,2.4591,2.4592,2.4594,2.4565,2.4563,2.4561,2.4559,2.4663,2.4667,2.4672,0,0,0,0,0,0,0,0,0,0,0,0,0,2.4275,2.4279,2.4491,2.4492,2.4494,2.4591,2.4593,2.4594,2.4565,2.4563,2.456,2.4558,2.4661,2.4667,2.4672,0,0,0,0,0,0,0,0,0,0,0,0,0,2.4372,2.4281,2.4491,2.4491,2.4492,2.4591,2.4593,2.4594,2.4566,2.4563,2.456,2.4557,2.4659,2.4666,2.4673,2.4778,0,0,2.4695,2.4698,0,0,0,0,0,0,0,0,2.4366,2.438,2.449,2.4491,2.4492,2.4562,2.4554,2.4656,2.4567,2.4538,2.4559,2.4555,2.4632,2.4641,2.4667,2.4783,2.4788,2.4695,2.4699,2.4702,2.4704,0,0,0,0,0,0,0,2.436,2.4375,2.4531,2.4491,2.4493,2.4486,2.4496,2.4574,2.4601,2.454,2.4538,2.455,2.4632,2.466,2.4669,2.4789,2.4695,2.4701,2.4706,2.4708,2.4996,2.4999,0,0,0,0,0,0,2.4352,2.437,2.4528,2.4534,2.442,2.4493,2.4504,2.4543,2.46,2.4606,2.4553,2.4549,2.4649,2.4661,2.4672,2.4798,2.4702,2.4709,2.4713,2.4992,2.4996,2.5,0,0,0,0,0,0,2.4347,2.4366,2.4523,2.4451,2.4471,2.45,2.4544,2.4547,2.4574,2.461,2.4615,2.4576,2.4647,2.4662,2.4752,2.4801,2.4712,2.4719,2.4988,2.4994,2.4998,2.5051,0,0,0,0,0,0,2.4341,2.4365,2.4405,2.4452,2.4475,2.4601,2.4547,2.4551,2.4587,2.4582,2.4633,2.4638,2.4646,2.4741,2.4759,2.4809,2.4724,2.4984,2.4991,2.4997,2.5045,2.5057,2.5068,0,0,0,0,0,2.4334,2.4416,2.4407,2.4426,2.4525,2.4604,2.4617,2.4624,2.4591,2.4631,2.4654,2.4637,2.4793,2.4751,2.477,2.4823,2.4981,2.4989,2.4996,2.504,2.5055,2.5067,0,0,0,0,0,0,2.4374,2.4422,2.4413,2.4513,2.4555,2.4599,2.465,2.464,2.4692,2.4685,2.4692,2.4704,2.4795,2.4818,2.477,2.4928,2.4882,2.4894,2.4909,2.4923,2.4934,2.4926,2.473,0,0,0,0,0,2.4395,2.4454,2.4493,2.4578,2.4599,2.4621,2.4656,2.4658,2.4701,2.4718,2.4748,2.4791,2.4849,2.4888,2.4944,2.5049,2.5059,2.5095,2.5106,2.5115,2.5125,2.5181,2.5197,2.5025,2.5025,2.5025,0,0,2.4438,2.4472,2.4509,2.4587,2.4619,2.4681,2.4636,2.4703,2.4749,2.4729,2.4814,2.4837,2.4886,2.4983,2.5027,2.5005,2.5175,2.5125,2.5132,2.5137,2.519,2.5207,2.5221,2.5031,2.503,2.5029,0,0,2.4547,2.4579,2.4653,2.4686,2.4735,2.4749,2.4767,2.4813,2.4827,2.4913,2.4899,2.4954,2.5055,2.509,2.5121,2.5243,2.5229,2.5261,2.5321,2.5375,2.5388,2.54,2.5442,2.5458,2.5271,2.5272,2.5272,0,2.4595,2.4686,2.4692,2.476,2.4794,2.4779,2.4853,2.4885,2.4951,2.4975,2.4949,2.5075,2.5107,2.5211,2.5241,2.5267,2.5287,2.5255,2.5386,2.5398,2.5409,2.5449,2.5465,2.5275,2.5275,2.5274,2.5274,0,2.4741,2.4805,2.4859,2.4921,2.4962,2.5033,2.5049,2.509,2.5088,2.5105,2.5192,2.523,2.5292,2.5318,2.5317,2.5422,2.5406,2.5384,2.5338,2.5429,2.5467,2.5482,2.528,2.5279,2.5278,2.5277,0,0,2.4879,2.4943,2.4963,2.499,2.5043,2.5093,2.5163,2.5224,2.5258,2.5304,2.5362,2.5448,2.5427,2.5462,2.5465,2.5513,2.5606,2.5484,2.5486,2.5504,2.5722,2.5737,2.5755,2.5598,2.5601,2.5603,2.5717,0,2.4991,2.5114,2.5121,2.5232,2.529,2.5276,2.5337,2.5377,2.5394,2.5446,2.5466,2.5526,2.5495,2.5515,2.5562,2.5585,2.5649,2.5577,2.5651,2.5654,2.5637,2.5775,2.5792,2.5898,2.5732,2.5735,2.5737,0,2.5139,2.5189,2.5305,2.5349,2.5374,2.5428,2.5484,2.5535,2.5579,2.5588,2.5627,2.5623,2.5695,2.5648,2.5746,2.5696,2.5727,2.5743,2.5747,2.5753,2.5699,2.5783,2.5932,2.5947,2.576,2.5758,2.5757,0,2.5226,2.5322,2.5403,2.5428,2.5481,2.552,2.5544,2.5585,2.5621,2.567,2.5693,2.575,2.5781,2.5826,2.5837,2.5802,2.5935,2.5889,2.5944,2.5944,2.5971,2.5969,2.6125,2.5994,2.5994,2.5994,2.5993,0,2.535,2.5422,2.5442,2.5493,2.5572,2.558,2.5659,2.568,2.5717,2.5771,2.5763,2.5814,2.5827,2.588,2.589,2.5969,2.5984,2.5993,2.5994,2.5993,2.5991,2.6012,2.6004,2.5998,2.5997,2.5996,2.5995,0,2.546,2.5477,2.5564,2.5608,2.562,2.5677,2.5714,2.5762,2.5778,2.5847,2.5863,2.5889,2.5952,2.5968,2.6043,2.6049,2.6142,2.6138,2.6127,2.6126,2.6179,2.6173,2.6353,2.6376,2.6231,2.6233,2.6234,0,2.5537,2.5592,2.564,2.5676,2.5701,2.5759,2.5795,2.5805,2.5843,2.5896,2.5938,2.5999,2.6048,2.6148,2.6174,2.6231,2.6227,2.6286,2.6235,2.6231,2.6225,2.6221,2.6226,2.6295,2.6296,2.6297,2.6298,0,2.5672,2.5678,2.573,2.5785,2.5828,2.5872,2.5915,2.5944,2.596,2.6003,2.6066,2.6104,2.618,2.624,2.6298,2.6323,2.6313,2.6314,2.633,2.6328,2.6318,2.6322,2.6151,2.631,2.6309,2.6308,2.6307,2.6307,2.5767,2.5814,2.5856,2.5914,2.5946,2.5986,2.6032,2.6054,2.6107,2.6169,2.6172,2.624,2.6282,2.6358,2.6386,2.6439,2.6422,2.6444,2.645,2.6455,2.6458,2.6311,2.645,2.645,2.645,2.6449,2.6449,0,2.59,2.5926,2.598,2.6038,2.6084,2.6071,2.6117,2.6155,2.6215,2.6255,2.6304,2.6375,2.6434,2.6464,2.6522,2.6559,2.6556,2.6574,2.657,2.6576,2.6472,2.6452,2.6575,2.6575,2.6575,2.6575,2.6575,2.6575,2.5975,2.6053,2.6064,2.6158,2.6184,2.625,2.6277,2.6313,2.6344,2.6425,2.6473,2.6492,2.6528,2.6588,2.6641,2.6648,2.6669,2.6689,2.6694,2.6596,2.6583,2.6571,2.6552,2.6694,2.6694,2.6792,2.6793,2.6794]},{"header":{"parameterUnit":"m.s-1","parameterCategory":1,"la1":30.2991,"la2":30.254,"lo1":-89.0895,"lo2":-89.0444,"dy":0.0017,"dx":0.0017,"nx":28,"ny":28,"refTime":"2024-07-01T21:00:00:Z","depth":0,"parameterNumber":3,"parameterNumberName":"V-component_of_WINDS"},"data":[0,0,0,0,0,0,0,0,0,0,0,0,0,0,0,0,0,0,0,0,0,0,0,0,0,0,0,0,0,0,0,0,0,0,0,0,0,0,0,0,0,0,0,0,0,0,0,0,0,0,0,0,0,0,0,0,0,0,-0.1,-0.1,0,-0.0947,-0.0947,-0.0946,-0.0919,-0.0919,-0.0919,-0.0919,-0.0862,-0.086,-0.0859,0,0,0,0,0,0,0,0,0,0,0,0,0,-0.1076,-0.1075,-0.1,-0.1,-0.0999,-0.0947,-0.0947,-0.0946,-0.0919,-0.0919,-0.0919,-0.0919,-0.0862,-0.086,-0.0859,0,0,0,0,0,0,0,0,0,0,0,0,0,-0.1035,-0.1075,-0.1001,-0.098,-0.0977,-0.0947,-0.0947,-0.0946,-0.0919,-0.0919,-0.0919,-0.0919,-0.0863,-0.0861,-0.0858,-0.0844,0,0,-0.0851,-0.085,0,0,0,0,0,0,0,0,-0.1038,-0.1032,-0.0983,-0.0981,-0.0978,-0.094,-0.0952,-0.0911,-0.0919,-0.0941,-0.0919,-0.0919,-0.0887,-0.0883,-0.0873,-0.0842,-0.0839,-0.0851,-0.085,-0.0849,-0.0848,0,0,0,0,0,0,0,-0.104,-0.1035,-0.0979,-0.0983,-0.098,-0.0972,-0.0966,-0.0944,-0.0915,-0.0939,-0.0937,-0.0931,-0.0886,-0.0875,-0.0872,-0.0838,-0.0851,-0.0849,-0.0848,-0.0847,-0.0792,-0.0792,0,0,0,0,0,0,-0.1047,-0.1037,-0.0981,-0.0978,-0.1009,-0.0971,-0.0964,-0.0952,-0.0915,-0.0909,-0.0931,-0.093,-0.0879,-0.0874,-0.0869,-0.085,-0.0849,-0.0847,-0.0845,-0.0792,-0.0792,-0.0792,0,0,0,0,0,0,-0.1049,-0.1042,-0.0983,-0.1007,-0.0999,-0.0969,-0.0956,-0.0951,-0.094,-0.0909,-0.0904,-0.0926,-0.0879,-0.0873,-0.0851,-0.0848,-0.0846,-0.0843,-0.0792,-0.0792,-0.0792,-0.0812,0,0,0,0,0,0,-0.1051,-0.1043,-0.1038,-0.1007,-0.0998,-0.0966,-0.0956,-0.095,-0.0937,-0.0935,-0.0903,-0.0897,-0.0879,-0.0854,-0.0849,-0.0845,-0.0842,-0.0792,-0.0792,-0.0792,-0.0812,-0.0813,-0.0814,0,0,0,0,0,-0.1054,-0.1045,-0.1038,-0.1031,-0.0991,-0.0966,-0.0961,-0.094,-0.0937,-0.0931,-0.0911,-0.0898,-0.0849,-0.0852,-0.0846,-0.0841,-0.0792,-0.0792,-0.0792,-0.0811,-0.0813,-0.0814,0,0,0,0,0,0,-0.1076,-0.1041,-0.1032,-0.1014,-0.0993,-0.0962,-0.0954,-0.0942,-0.0922,-0.0921,-0.0895,-0.0888,-0.0868,-0.0852,-0.0857,-0.0825,-0.082,-0.0818,-0.0837,-0.0838,-0.0839,-0.0843,-0.084,0,0,0,0,0,-0.1079,-0.1063,-0.1032,-0.1019,-0.1009,-0.0983,-0.0972,-0.0958,-0.0935,-0.0926,-0.0905,-0.0882,-0.0862,-0.0849,-0.0828,-0.0809,-0.0802,-0.0803,-0.0804,-0.0805,-0.0804,-0.0792,-0.0792,-0.0791,-0.0791,-0.0791,0,0,-0.1084,-0.1063,-0.1054,-0.1023,-0.1005,-0.0988,-0.0976,-0.0959,-0.0946,-0.0923,-0.0902,-0.0885,-0.0858,-0.0838,-0.0828,-0.0824,-0.0802,-0.0805,-0.0806,-0.0804,-0.0792,-0.0792,-0.0792,-0.0791,-0.0791,-0.0791,0,0,-0.1085,-0.1068,-0.1054,-0.1037,-0.1012,-0.0995,-0.0992,-0.0962,-0.095,-0.0928,-0.0911,-0.0895,-0.086,-0.0842,-0.0828,-0.0823,-0.081,-0.0817,-0.0822,-0.0811,-0.0811,-0.0811,-0.0809,-0.0808,-0.0816,-0.0816,-0.0816,0,-0.1094,-0.1069,-0.1049,-0.1032,-0.1019,-0.0999,-0.0985,-0.0969,-0.0937,-0.0928,-0.0925,-0.0881,-0.0862,-0.0837,-0.0835,-0.0825,-0.082,-0.082,-0.0813,-0.0813,-0.0812,-0.081,-0.0809,-0.0817,-0.0816,-0.0816,-0.0816,0,-0.1082,-0.1065,-0.1057,-0.1028,-0.1014,-0.0999,-0.0975,-0.0963,-0.095,-0.0933,-0.0911,-0.0887,-0.0861,-0.0854,-0.0841,-0.0827,-0.0826,-0.0818,-0.0812,-0.0814,-0.0811,-0.081,-0.0818,-0.0818,-0.0817,-0.0817,0,0,-0.1095,-0.1056,-0.1053,-0.104,-0.101,-0.0996,-0.0979,-0.0955,-0.0945,-0.0924,-0.0909,-0.088,-0.0873,-0.0857,-0.0842,-0.0833,-0.0829,-0.0826,-0.0825,-0.0827,-0.0812,-0.0818,-0.0817,-0.0821,-0.0821,-0.0821,-0.0814,0,-0.1092,-0.1063,-0.1044,-0.1022,-0.1005,-0.0986,-0.0972,-0.0952,-0.0935,-0.0918,-0.09,-0.088,-0.0872,-0.0862,-0.0852,-0.0832,-0.0826,-0.0832,-0.0806,-0.0805,-0.0813,-0.0816,-0.0822,-0.0817,-0.0813,-0.0813,-0.0813,0,-0.1084,-0.1064,-0.1041,-0.1013,-0.1005,-0.0993,-0.0969,-0.0954,-0.093,-0.0919,-0.0902,-0.0886,-0.0867,-0.0863,-0.0836,-0.0841,-0.0829,-0.0818,-0.0817,-0.0813,-0.0809,-0.0812,-0.0815,-0.0814,-0.0811,-0.0811,-0.0811,0,-0.1095,-0.1063,-0.1045,-0.1034,-0.1001,-0.0993,-0.0979,-0.0955,-0.0942,-0.0921,-0.0912,-0.0889,-0.0876,-0.0858,-0.0836,-0.0835,-0.0811,-0.0805,-0.0801,-0.0801,-0.0796,-0.0797,-0.0797,-0.0789,-0.0789,-0.0789,-0.0789,0,-0.1093,-0.108,-0.105,-0.1039,-0.1023,-0.1001,-0.0985,-0.0969,-0.0948,-0.0933,-0.0915,-0.0901,-0.0874,-0.0856,-0.0839,-0.0819,-0.0813,-0.0803,-0.0798,-0.0804,-0.0806,-0.0796,-0.0796,-0.0789,-0.0789,-0.0789,-0.0789,0,-0.1103,-0.1083,-0.1062,-0.1033,-0.1025,-0.1015,-0.0989,-0.0977,-0.096,-0.0941,-0.0935,-0.0908,-0.0886,-0.0864,-0.0833,-0.0822,-0.0803,-0.0797,-0.0811,-0.0808,-0.0805,-0.0806,-0.0799,-0.0797,-0.0791,-0.0791,-0.0791,0,-0.1103,-0.1092,-0.1062,-0.1052,-0.1038,-0.102,-0.1007,-0.0985,-0.0972,-0.0944,-0.0935,-0.0912,-0.0893,-0.0858,-0.0836,-0.0812,-0.0805,-0.0805,-0.0802,-0.0808,-0.0805,-0.0806,-0.0804,-0.0806,-0.0806,-0.0806,-0.0806,0,-0.1105,-0.1096,-0.1078,-0.1056,-0.1041,-0.1023,-0.1004,-0.0996,-0.097,-0.0955,-0.0933,-0.0918,-0.0888,-0.0865,-0.084,-0.0824,-0.081,-0.0807,-0.0805,-0.0811,-0.0819,-0.0814,-0.0813,-0.0807,-0.0807,-0.0807,-0.0807,-0.0807,-0.111,-0.1099,-0.1077,-0.1057,-0.1041,-0.1024,-0.1011,-0.0993,-0.0975,-0.0949,-0.0937,-0.0915,-0.0891,-0.0855,-0.084,-0.0821,-0.0817,-0.0814,-0.0813,-0.0813,-0.0814,-0.0823,-0.0817,-0.0816,-0.0816,-0.0816,-0.0816,0,-0.111,-0.1095,-0.1078,-0.1052,-0.1037,-0.1027,-0.1005,-0.0993,-0.0974,-0.0953,-0.0935,-0.0909,-0.0887,-0.0863,-0.0839,-0.0829,-0.0822,-0.0823,-0.0823,-0.082,-0.0819,-0.0823,-0.0829,-0.0829,-0.0829,-0.0829,-0.0829,-0.0829,-0.1109,-0.1091,-0.1079,-0.1052,-0.1037,-0.1016,-0.1004,-0.0988,-0.0971,-0.0944,-0.0926,-0.0911,-0.0889,-0.0863,-0.0842,-0.0835,-0.0827,-0.083,-0.0821,-0.0821,-0.082,-0.0819,-0.0823,-0.0828,-0.0828,-0.0824,-0.0824,-0.0824]}]]